This demonstration page uses our WeatherBlox Daily Observations layout. Learn more.

Left ArrowRight Arrow

Hourly Observations for January 2, 2019

Temp ( °F °C ) Dew Point ( °F °C ) Humidity (%) Winds ( mph kmh ) Pressure ( in mb ) Visibility ( mi km ) Precip ( " mm )
12:51 am 00:51 Cloudy 31 -0.6 24 -4.4 76 76 WNW 8 13 29.99 1016 10 16 N/A
1:51 am 01:51 Cloudy 30 -1.1 23 -5 75 75 WNW 8 13 29.99 1016 10 16 N/A
2:51 am 02:51 Cloudy 29 -1.7 22 -5.6 75 75 WNW 10 17 29.98 1015 10 16 N/A
3:51 am 03:51 Cloudy 29 -1.7 20 -6.7 69 69 WNW 12 19 29.98 1015 10 16 N/A
4:51 am 04:51 Cloudy with Light Snow 28 -2.2 21 -6.1 75 75 WNW 8 13 29.96 1015 4 6 0.00 0.00
5:51 am 05:51 Cloudy with Light Snow 27 -2.8 23 -5 85 85 NW 7 11 29.96 1015 7 11 0.00 0.00
6:01 am 06:01 Cloudy with Mist and Fog 27 -2.8 23 -5 85 85 W 8 13 30.09 1019 6 10 0.00 0.00
6:35 am 06:35 Cloudy with Light Snow 27 -2.8 25 -3.9 92 92 WNW 8 13 30.09 1019 3 4 0.00 0.00
6:46 am 06:46 Cloudy with Light Snow 27 -3 25 -4 93 93 NW 7 11 30.12 1020 3 4 N/A
6:51 am 06:51 Cloudy with Light Snow 27 -2.8 25 -3.9 92 92 NW 7 11 30.00 1016 3 4 0.01 0.25
6:57 am 06:57 Cloudy with Light Snow 27 -2.8 26 -3.3 96 96 WNW 7 11 30.09 1019 3 5 0.00 0.00
7:15 am 07:15 Cloudy with Light Snow 27 -2.8 26 -3.3 96 96 WNW 10 17 30.15 1021 3 4 0.01 0.25
7:35 am 07:35 Cloudy with Light Snow 26 -3.3 26 -3.3 100 100 WNW 9 15 30.15 1021 5 8 0.01 0.25
7:39 am 07:39 Cloudy with Light Snow 26 -3.3 26 -3.3 100 100 WNW 9 15 30.15 1021 3 4 0.01 0.25
7:43 am 07:43 Cloudy with Light Snow 26 -3.3 25 -3.9 96 96 WNW 10 17 30.15 1021 1 1 0.01 0.25
7:51 am 07:51 Cloudy with Heavy Snow 26 -3.3 25 -3.9 96 96 WNW 10 17 30.03 1017 0 0 0.02 0.51
8:26 am 08:26 Mostly Cloudy with Snow 26 -3.3 26 -3.3 100 100 WNW 9 15 30.18 1022 1 1 0.04 1.02
8:51 am 08:51 Mostly Cloudy with Heavy Snow 26 -3.3 26 -3.3 100 100 WNW 9 15 30.06 1018 0 0 0.06 1.52
9:51 am 09:51 Cloudy with Light Snow 27 -2.8 26 -3.3 96 96 WNW 8 13 30.07 1018 2 2 0.07 1.78
9:54 am 09:54 Cloudy with Light Snow 27 -3 27 -3 100 100 WNW 7 11 30.21 1023 3 5 N/A
10:10 am 10:10 Cloudy with Light Snow 27 -3 27 -3 100 100 WNW 6 9 30.21 1023 3 4 N/A
10:28 am 10:28 Cloudy with Light Snow 28 -2 27 -3 93 93 WNW 6 9 30.18 1022 3 5 N/A
10:33 am 10:33 Cloudy with Light Snow 28 -2.2 26 -3.3 92 92 WNW 7 11 30.21 1023 3 4 0.00 0.00
10:41 am 10:41 Cloudy with Light Snow 28 -2.2 27 -2.8 96 96 WNW 6 9 30.21 1023 1 2 0.00 0.00
10:51 am 10:51 Cloudy with Light Snow 28 -2.2 26 -3.3 92 92 WNW 7 11 30.09 1019 1 2 0.01 0.25
10:58 am 10:58 Cloudy with Light Snow 28 -2 27 -3 93 93 WNW 7 11 30.18 1022 1 1 N/A
11:09 am 11:09 Cloudy with Light Snow 28 -2.2 26 -3.3 92 92 WNW 7 11 30.21 1023 2 2 0.00 0.00
11:15 am 11:15 Cloudy with Light Snow 28 -2.2 26 -3.3 92 92 WNW 6 9 30.21 1023 3 4 0.00 0.00
11:41 am 11:41 Cloudy with Light Snow 29 -1.7 27 -2.8 92 92 NW 8 13 30.18 1022 2 3 0.00 0.00
11:51 am 11:51 Cloudy with Light Snow 29 -1.7 27 -2.8 92 92 WNW 7 11 30.08 1019 2 2 0.00 0.00
12:31 pm 12:31 Cloudy with Light Snow 30 -1.1 28 -2.2 92 92 WNW 8 13 30.18 1022 2 3 0.01 0.25
12:40 pm 12:40 Cloudy with Light Snow 30 -1 28 -2 93 93 WNW 9 15 30.18 1022 2 3 N/A
12:51 pm 12:51 Cloudy with Light Snow 31 -0.6 29 -1.7 92 92 WNW 10 17 30.08 1019 2 3 0.02 0.51
1:04 pm 13:04 Cloudy with Light Snow 31 -0.6 29 -1.7 92 92 WNW 9 15 30.18 1022 2 3 0.00 0.00
1:16 pm 13:16 Cloudy with Light Snow 32 undefined 30 -1 93 93 NW 8 13 30.18 1022 4 6 N/A
1:43 pm 13:43 Cloudy with Light Snow 32 undefined 28 -2 87 87 WNW 12 19 30.18 1022 7 11 N/A
1:51 pm 13:51 Cloudy with Light Snow 32 undefined 29 -1.7 88 88 WNW 9 15 30.09 1019 9 14 0.00 0.00
2:51 pm 14:51 Cloudy 33 0.6 29 -1.7 85 85 NW 7 11 30.09 1019 10 16 0.00 0.00
3:51 pm 15:51 Cloudy 33 0.6 30 -1.1 89 89 WNW 7 11 30.12 1020 10 16 N/A
4:51 pm 16:51 Cloudy 33 0.6 30 -1.1 89 89 W 5 7 30.14 1021 10 16 N/A
5:51 pm 17:51 Cloudy 33 0.6 30 -1.1 89 89 WNW 6 9 30.17 1022 10 16 N/A
6:51 pm 18:51 Clear 30 -1.1 28 -2.2 92 92 WNW 6 9 30.18 1022 10 16 N/A
7:51 pm 19:51 Clear 29 -1.7 28 -2.2 96 96 NNE 8 13 30.20 1023 10 16 N/A
8:51 pm 20:51 Clear 30 -1.1 27 -2.8 88 88 N 7 11 30.22 1023 10 16 N/A
9:51 pm 21:51 Clear 25 -3.9 24 -4.4 96 96 ESE 3 6 30.25 1024 10 16 N/A
10:51 pm 22:51 Clear 23 -5 22 -5.6 96 96 E 5 7 30.27 1025 10 16 N/A
11:51 pm 23:51 Clear 23 -5 22 -5.6 96 96 E 6 9 30.28 1026 10 16 N/A

Powered by AerisWeather